Location: Biharia
(46.4333°N, 22.8000°E)
Time: 12:38:30
(UTC+00:00)

CSL-04 Rocket - Visible Passes

Search period start: 29 May 2022 00:00
Search period end: 08 June 2022 00:00
Orbit: 806 x 860 km, 98.9° (Epoch: 28 May)

Date Brightness Start Highest point End Pass type
(mag) Time Alt. Az. Time Alt. Az. Time Alt. Az.
29 May 6.0 19:21:35 10° SW 19:25:31 21° W 19:29:29 10° NW visible
30 May 5.5 19:03:47 10° SSW 19:08:20 28° W 19:12:58 10° NW visible
31 May 5.0 18:46:14 10° SSW 18:51:13 39° W 18:56:16 10° NNW visible
02 Jun 6.5 19:57:19 10° W 19:58:21 10° W 19:59:22 10° WNW visible
03 Jun 6.2 19:37:59 10° SW 19:41:05 15° W 19:44:13 10° NW visible
04 Jun 5.9 19:19:49 10° SW 19:23:51 22° W 19:27:58 10° NW visible
05 Jun 5.5 19:02:02 10° SSW 19:06:41 30° W 19:11:25 10° NW visible
